INMARSAT 3-F2 1 24307U 96053A 22145.51390668 .00000119 00000-0 00000-0 0 9992 2 24307 6.4674 67.1571 0010988 5.8961 204.0573 0.99991659 94086 ARTEMIS 1 26863U 01029A 22145.83463608 -.00000076 00000-0 00000-0 0 9993 2 26863 14.0033 17.4749 0015189 111.3793 72.8814 0.99293265 29128 ANIK F1-R 1 28868U 05036A 22145.66615976 -.00000078 00000-0 00000-0 0 9992 2 28868 0.5045 93.7111 0003263 337.4356 304.5979 1.00272245 31571 GALAXY 15 1 28884U 05041A 22145.66101389 .00000075 00000-0 00000-0 0 9990 2 28884 0.0157 344.3234 0001731 78.8766 284.9853 1.00272121 60733 INMARSAT 4-F2 1 28899U 05044A 22145.84379399 .00000006 00000-0 00000-0 0 9991 2 28899 3.4869 37.2112 0002797 39.4185 174.4160 1.00271542 60640 HIMAWARI 7 1 28937U 06004A 22145.80053378 .00000007 00000-0 00000-0 0 9994 2 28937 1.9529 89.9587 0003873 50.0001 238.6405 0.99077203 59526 INMARSAT 4-F3 1 33278U 08039A 22145.81152328 -.00000144 00000-0 00000-0 0 9997 2 33278 3.3022 19.8040 0002695 57.0171 0.6849 1.00271231 31671 QZS-1 (MICHIBIKI) 1 37158U 10045A 22145.82793464 -.00000075 00000-0 00000-0 0 9994 2 37158 42.3121 133.6965 0759074 270.5316 279.7362 1.00264401 42862 GSAT 8 1 37605U 11022A 22145.84204962 .00000081 00000-0 00000-0 0 9995 2 37605 0.0011 210.1818 0003020 102.4511 288.9921 1.00272492 38349 LUCH 5A 1 37951U 11074B 22145.75213488 -.00000049 00000-0 00000-0 0 9994 2 37951 4.9628 98.1293 0005820 335.6976 247.2289 1.00268606 38310 SES 5 1 38652U 12036A 22145.54504358 .00000029 00000-0 00000-0 0 9995 2 38652 0.0524 295.7545 0002123 129.4651 19.0757 1.00271988 29613 GSAT 10 1 38779U 12051B 22145.82410551 -.00000168 00000-0 00000-0 0 9999 2 38779 0.0568 112.9518 0000991 2.4128 147.6895 1.00271796 35245 LUCH 5B 1 38977U 12061A 22145.61246251 -.00000140 00000-0 00000-0 0 9991 2 38977 7.2443 62.7842 0005427 28.5791 355.9488 1.00271888 35303 ASTRA 5B 1 39617U 14011B 22146.07132830 .00000152 00000-0 00000+0 0 9999 2 39617 0.0612 307.6965 0003572 129.7638 223.3532 1.00272724 29990 LUCH 5V 1 39727U 14023A 22145.84998649 -.00000272 00000-0 00000-0 0 9991 2 39727 1.4473 75.0804 0003627 24.3647 184.7042 1.00272236 29489 GSAT 15 1 41028U 15065A 22145.73241731 -.00000262 00000-0 00000-0 0 9995 2 41028 0.0464 264.3860 0004194 160.8086 175.2779 1.00271552 23935 QZS-2 1 42738U 17028A 22145.64522738 -.00000259 00000-0 00000+0 0 9999 2 42738 41.8102 264.4982 0758673 269.0948 80.6444 1.00292921 18260